Theta_e
305 305 305 304 304 304 305 305 304 304 304 304 304 304 304 303 303 303 303 303 303 302 302 303 303 303 304 304 304 303 303 304 304 304 304 304 304 304 304 304 304 304 303 303 304 304 304 304 303 303 303 303 303 303 304 304 304 304 303 303 303 303 303 302 302 302 302 302 302
304 304 304 303 303 304 304 304 304 304 303 304 304 304 303 303 303 303 303 303 303 303 303 303 303 304 304 304 304 303 303 303 303 304 304 304 304 304 304 304 304 304 303 303 303 303 303 303 303 303 303 303 303 303 303 304 304 303 303 303 302 302 302 302 302 302 302 302 302
304 304 304 304 304 304 303 303 304 304 304 303 303 303 303 303 303 303 303 303 303 303 303 303 303 304 304 304 304 304 304 303 303 303 303 303 303 304 303 303 303 303 303 303 303 303 303 302 302 302 301 302 302 302 302 303 303 302 302 302 302 302 301 301 301 301 302 301 301
303 303 303 303 303 303 303 303 303 303 303 303 303 303 303 303 303 303 303 303 303 303 303 303 303 304 304 304 303 303 303 303 303 303 303 303 303 303 303 303 303 302 303 303 303 302 302 302 301 301 301 301 301 301 301 301 302 301 301 301 301 301 301 300 301 301 301 301 301
303 303 303 303 303 303 303 303 302 302 302 302 303 303 303 303 303 303 303 303 303 303 303 303 303 303 303 303 303 303 303 303 303 303 302 302 302 302 302 302 302 302 302 302 302 301 301 301 301 300 300 300 300 300 300 301 300 300 300 300 300 300 300 300 300 300 300 300 300
303 303 303 302 302 302 302 302 302 302 302 302 303 302 302 302 303 302 302 302 303 303 303 303 303 303 302 302 302 302 302 302 302 302 302 301 301 301 301 301 301 301 301 301 301 301 300 300 299 299 299 299 299 299 300 300 299 299 299 299 299 299 299 299 299 299 299 298 298
302 302 302 302 302 302 302 302 302 302 302 302 302 302 302 302 302 302 302 302 302 302 303 302 302 302 301 301 301 301 301 301 301 301 300 300 300 300 300 300 300 300 300 300 300 300 300 300 299 298 298 298 298 298 299 299 298 298 298 298 298 298 298 298 298 298 298 298 297
302 302 302 302 302 302 302 302 302 302 302 302 302 302 302 302 302 302 302 302 301 301 301 301 301 301 301 300 300 300 300 300 300 300 300 300 299 299 299 300 300 300 300 300 299 299 299 299 298 298 297 297 297 297 297 298 297 297 297 297 297 297 298 298 298 298 298 297 297
302 302 302 302 302 302 302 302 302 302 302 302 301 301 302 302 301 301 301 300 301 301 301 301 301 300 300 300 300 299 299 299 299 299 299 299 299 299 299 299 299 299 299 299 299 299 299 298 298 298 297 297 297 297 297 297 297 297 296 296 297 297 297 297 297 297 297 297 297
302 302 302 302 302 302 302 302 302 302 302 302 301 301 301 301 301 300 300 300 300 300 300 300 300 300 299 299 299 299 299 299 298 298 298 298 298 298 298 298 298 298 298 299 298 299 298 298 297 297 297 298 297 297 297 297 297 297 296 296 297 297 297 297 297 297 297 297 296
302 302 302 302 302 302 302 302 302 302 301 301 301 301 301 300 300 300 300 300 300 300 300 300 300 299 299 299 298 298 298 298 298 298 298 297 297 298 297 298 298 298 298 298 298 298 298 298 297 297 297 297 297 297 297 297 297 297 296 296 297 296 296 296 297 296 297 297 296
302 302 302 302 302 302 302 302 301 301 301 301 301 300 300 300 300 300 300 300 299 299 299 299 299 299 298 298 298 298 298 298 297 297 297 297 297 297 297 297 297 297 297 297 298 298 298 297 297 297 297 297 297 297 297 297 297 296 296 296 296 296 296 296 296 296 296 297 296
301 301 301 301 302 302 302 301 301 301 301 300 300 300 300 300 300 300 299 299 299 299 299 299 299 298 298 298 298 298 297 297 297 297 297 297 297 297 297 297 297 297 297 297 298 298 297 297 297 296 296 296 297 297 297 296 296 296 296 296 295 295 295 295 296 296 296 297 296
301 301 301 301 301 301 301 301 301 301 300 300 300 300 300 299 299 299 299 299 298 298 298 298 298 298 298 298 297 297 297 297 297 297 297 297 297 297 297 297 297 297 297 297 297 297 297 297 296 296 296 296 296 296 296 296 296 295 295 295 295 295 295 295 296 296 296 296 296
301 301 301 301 301 301 301 301 300 300 300 300 300 299 299 299 299 299 298 298 298 298 298 298 298 298 298 298 297 297 297 297 297 296 296 296 296 296 296 296 296 296 296 296 296 296 296 296 296 296 296 296 296 296 296 296 295 295 295 295 295 295 295 295 296 296 296 296 296
300 300 301 301 301 301 300 300 300 300 299 299 299 299 299 299 299 298 298 298 298 298 298 297 297 297 298 298 297 297 297 297 296 296 296 296 296 296 296 296 296 296 296 296 296 296 296 296 296 296 295 295 295 295 295 295 295 295 295 295 295 295 296 296 296 297 297 297 297
300 300 301 300 300 300 300 300 300 300 299 299 299 299 298 298 298 298 298 298 297 297 297 297 297 297 297 297 297 297 297 296 296 296 296 295 295 295 295 295 295 295 295 295 295 295 295 295 296 295 295 295 295 295 295 295 295 295 295 296 296 296 297 297 297 297 297 297 297
300 300 300 300 300 300 300 300 300 299 299 299 299 299 298 298 298 298 298 298 297 297 297 297 297 297 297 297 297 297 296 296 296 296 295 295 295 295 295 295 295 295 295 295 295 295 295 295 295 295 295 295 295 295 295 295 295 295 296 296 297 297 297 298 298 298 298 298 298
300 300 300 300 300 300 300 299 299 299 299 299 298 298 298 298 298 297 297 297 297 297 296 296 296 296 296 296 296 296 296 296 296 295 295 295 295 295 295 295 295 295 295 295 294 295 295 295 295 295 295 295 295 295 295 295 296 296 296 297 297 297 298 298 298 299 298 298 298
300 300 300 300 300 300 300 299 299 299 299 299 298 298 298 298 298 297 297 297 297 297 297 296 296 296 296 296 296 296 296 296 295 295 295 295 295 295 295 295 295 295 295 295 295 295 294 295 295 295 295 295 295 295 296 296 296 296 297 297 298 298 298 298 299 299 299 299 298
300 300 300 300 300 300 300 299 299 299 298 298 298 298 298 297 297 297 297 297 297 297 297 297 296 296 296 296 296 296 295 296 295 295 295 295 295 295 295 295 295 295 295 294 295 295 295 295 295 295 295 296 296 296 297 297 297 297 298 298 298 298 299 299 299 299 299 299 299
300 300 300 300 300 300 300 300 299 299 298 298 298 298 297 297 297 297 297 297 297 297 297 297 296 296 296 296 296 295 295 295 295 295 295 295 295 295 295 295 295 294 294 294 295 295 295 295 295 296 296 296 297 297 297 297 298 298 298 299 299 299 300 300 300 300 300 300 299
300 300 300 300 300 300 299 299 299 299 298 298 298 297 297 297 297 297 297 297 297 297 296 296 296 296 296 296 295 295 295 295 295 295 295 295 295 295 295 295 295 295 294 295 295 295 295 296 296 296 297 297 297 298 298 298 298 299 299 299 300 300 301 301 301 301 301 300 300
300 300 300 300 300 300 299 299 299 298 298 297 297 297 297 296 296 296 296 296 296 296 296 296 296 296 296 295 295 295 295 294 294 294 294 294 294 295 295 295 295 295 295 295 296 296 296 296 296 297 297 298 298 299 299 299 300 299 300 300 300 301 301 301 301 301 300 300 301
299 300 300 300 300 299 299 299 299 298 298 297 297 296 296 296 296 296 296 296 296 296 296 296 296 296 295 295 295 295 295 294 294 294 294 294 294 294 295 295 295 295 295 296 296 296 297 297 297 297 297 298 299 299 300 300 300 300 300 300 300 300 300 300 300 300 300 300 301
299 299 299 299 299 299 299 299 298 298 297 297 297 296 296 296 296 296 295 295 295 295 296 295 295 295 295 295 295 294 294 294 294 294 294 294 294 294 294 295 295 295 296 296 297 297 298 298 299 299 298 298 299 300 300 300 300 300 300 300 299 299 299 298 299 299 300 300 301
299 299 299 299 299 299 299 298 298 297 297 296 296 296 296 296 296 295 295 295 295 295 295 295 295 295 295 295 294 294 294 294 294 294 294 294 294 294 294 295 295 295 296 297 297 298 299 299 300 300 300 299 300 300 300 300 300 300 300 300 300 300 299 299 299 299 300 300 301
299 299 299 299 299 299 298 298 297 297 296 296 296 296 296 296 295 295 295 295 295 295 295 295 295 295 294 294 294 294 294 294 294 294 294 294 294 294 294 295 295 296 297 297 298 298 299 300 300 301 301 300 300 300 300 300 300 300 300 301 301 300 300 299 299 299 299 300 300
299 299 299 299 299 298 298 297 297 296 296 296 296 295 295 295 295 295 295 295 294 294 294 294 294 294 294 294 293 294 294 294 294 294 294 294 294 294 294 295 295 296 297 298 298 299 299 300 301 301 301 301 300 301 301 301 300 300 300 300 300 300 299 299 299 299 299 299 299
299 299 299 299 298 298 298 297 296 296 296 296 295 295 295 295 295 295 294 294 294 294 294 294 294 294 294 293 293 293 293 293 294 294 294 294 294 294 294 295 295 296 297 298 298 299 299 300 301 301 301 301 301 300 300 301 300 300 300 300 299 299 299 299 299 299 299 299 299
299 299 299 298 298 297 297 297 296 296 295 295 295 295 295 295 294 295 294 294 294 294 294 294 294 293 293 293 293 293 293 293 293 294 294 294 294 294 294 294 295 296 297 297 298 299 299 300 300 301 301 301 301 300 300 300 300 300 299 299 299 299 299 299 299 299 299 299 299
299 298 298 298 297 297 297 296 296 295 295 295 295 295 295 294 294 295 295 294 294 294 294 293 293 293 293 293 293 293 293 293 293 293 294 294 294 294 294 295 295 296 297 297 298 299 299 300 300 300 301 301 300 300 300 300 300 300 299 299 299 300 300 300 300 300 300 299 299
299 298 298 298 297 297 296 296 296 295 295 295 295 295 294 295 295 295 295 294 294 294 293 293 293 293 292 292 292 292 292 293 293 294 294 294 294 294 294 294 295 296 297 298 298 299 299 300 300 300 300 300 300 300 300 300 300 300 299 299 299 300 300 300 300 300 300 300 299
299 298 298 297 297 296 296 296 295 295 295 295 294 295 295 295 295 294 294 294 294 293 293 293 293 292 292 292 292 292 292 293 293 294 294 294 294 294 294 294 295 297 297 298 299 299 299 300 300 300 300 300 299 299 299 299 300 299 299 299 299 299 299 299 300 300 300 300 300
298 298 297 297 296 296 295 295 295 295 295 294 294 295 295 295 294 294 294 294 294 293 293 293 293 293 293 293 293 293 293 293 293 294 294 294 294 294 294 294 295 296 297 298 299 299 299 299 299 299 299 299 299 299 299 299 299 299 299 299 299 299 299 299 299 300 300 300 299
298 297 297 296 296 295 295 295 295 294 294 294 294 294 295 294 294 294 294 294 293 293 293 293 293 292 292 292 292 293 293 293 293 293 294 294 294 294 294 294 295 296 297 298 299 299 299 299 299 299 299 299 299 298 299 299 299 299 298 298 298 298 298 299 299 299 300 300 299
298 297 297 296 295 295 295 295 294 294 294 294 294 294 294 294 294 294 294 294 293 293 292 292 292 292 292 292 292 292 293 293 293 293 294 294 294 294 294 294 295 295 297 298 298 298 299 299 299 299 299 298 298 298 298 298 299 298 297 297 298 298 298 298 299 299 300 299 299
298 297 296 295 295 295 294 294 294 294 294 294 294 294 294 294 294 294 294 293 293 292 292 292 292 292 292 292 292 293 293 293 293 293 294 294 294 294 294 294 294 295 296 297 297 298 298 298 299 299 298 297 297 297 298 298 298 297 297 297 298 298 298 298 299 299 299 299 299
298 297 296 295 295 294 294 294 294 294 294 294 294 294 294 294 293 293 293 293 293 292 292 291 291 292 292 292 292 292 293 293 294 294 294 294 294 295 294 294 294 295 296 297 297 297 298 298 298 298 298 297 297 298 298 298 298 297 297 297 298 298 298 298 298 299 298 298 298
297 297 296 295 295 294 294 294 294 294 294 294 294 294 294 294 294 294 293 293 293 292 292 292 292 292 292 293 292 292 292 293 293 294 294 294 295 295 295 294 294 295 295 296 296 297 297 298 298 298 298 297 297 298 299 298 298 297 296 296 297 297 298 298 299 299 298 298 298
297 296 296 295 295 294 294 294 294 294 295 294 294 294 294 294 294 293 293 293 293 292 292 292 292 292 292 292 292 292 292 292 293 294 294 295 295 295 295 294 294 294 295 295 296 296 297 297 297 298 298 297 297 298 298 298 297 296 295 295 296 296 297 298 298 298 298 297 298
Wind_Speed
4 3 3 3 2 2 2 2 2 2 2 2 2 2 2 2 2 2 2 2 2 2 3 3 3 3 4 6 6 7 7 8 8 8 8 8 7 7 7 7 7 7 7 7 7 7 6 6 6 5 4 4 5 6 6 5 6 7 7 7 7 8 9 10 10 11 11 12 10
4 4 3 3 2 2 2 2 2 2 2 2 2 2 2 2 2 2 2 2 2 2 2 3 3 4 6 7 7 7 7 8 9 9 9 9 9 9 8 8 8 8 8 8 8 7 7 7 7 6 5 5 6 6 7 6 7 7 8 9 8 8 8 9 10 11 11 12 11
4 3 3 3 2 2 2 2 2 2 2 2 2 1 1 1 1 2 2 2 2 2 3 3 4 5 6 7 7 7 8 8 9 9 9 9 10 10 10 9 9 9 9 8 8 8 7 8 7 6 6 6 7 7 8 8 8 8 9 10 8 7 7 7 9 9 10 9 10
4 3 3 3 3 3 3 2 3 3 3 2 1 1 1 1 1 1 2 2 3 3 3 4 5 5 6 7 8 8 9 9 10 10 10 10 10 11 11 10 10 10 10 9 9 9 9 9 7 6 6 8 8 8 8 7 8 8 8 8 8 8 8 8 8 8 8 9 10
4 4 4 4 4 4 3 3 3 3 2 1 0 0 1 1 1 2 2 3 3 4 4 5 5 6 6 7 9 10 10 10 10 9 9 10 10 10 11 11 11 10 10 10 10 9 9 9 7 6 6 7 7 7 8 9 9 9 8 7 7 8 8 8 8 8 8 8 8
4 4 4 4 4 4 3 3 3 2 1 1 1 2 2 2 2 3 4 4 4 5 6 6 6 6 7 8 9 10 10 10 9 9 9 10 10 10 11 11 11 10 10 10 10 10 10 9 7 6 6 7 7 8 9 10 10 9 9 8 8 7 8 8 8 8 8 9 10
4 4 4 4 4 4 3 3 2 1 1 1 3 4 4 4 5 5 6 5 5 5 6 6 6 7 7 8 9 9 9 9 9 9 10 9 10 10 10 10 10 10 10 10 10 9 9 8 7 6 6 7 7 8 9 10 9 9 9 9 7 7 7 8 8 8 9 11 12
5 5 5 5 4 4 3 3 2 2 2 2 3 4 5 5 6 6 7 6 6 6 6 5 6 7 8 8 9 9 9 9 9 9 9 9 10 10 10 10 10 10 10 10 9 9 9 7 6 6 7 6 6 7 9 10 10 10 10 10 8 8 7 7 7 8 9 11 13
5 5 5 4 4 3 3 2 2 3 3 3 4 5 5 5 6 6 6 6 6 6 6 6 7 8 8 9 9 9 9 9 9 9 9 9 10 10 10 10 10 10 10 9 10 10 9 7 7 6 6 6 7 7 9 10 11 11 11 10 9 9 9 8 9 10 11 12 13
5 4 4 4 3 3 2 2 2 3 4 4 5 5 5 5 5 6 6 5 6 6 6 6 7 8 9 9 9 8 8 8 9 9 10 10 10 11 11 10 10 10 10 10 9 10 10 8 8 8 8 8 9 10 11 11 12 12 11 9 9 10 11 11 11 12 12 12 13
4 4 3 3 3 3 3 3 3 3 4 4 5 5 5 5 5 5 5 5 6 7 7 7 8 8 8 8 8 8 8 8 8 9 10 10 11 11 11 11 11 11 11 10 10 9 8 8 9 10 10 10 10 11 11 12 12 12 12 10 11 12 13 13 13 12 12 12 13
4 4 3 3 3 3 3 3 3 4 4 5 5 5 5 5 5 5 6 6 7 7 7 7 7 8 8 7 8 8 9 9 9 10 10 11 11 11 11 11 12 12 12 11 10 9 8 8 10 11 12 12 10 10 10 12 12 13 13 13 13 13 13 14 13 12 11 11 12
4 3 3 3 2 3 3 4 4 4 4 5 5 5 5 5 5 6 6 7 7 7 7 7 7 7 8 8 8 8 9 9 10 10 10 11 11 11 11 11 12 12 11 11 10 9 9 10 11 12 13 13 11 11 11 12 13 13 13 14 14 14 14 14 13 13 12 12 12
3 3 2 2 3 3 3 4 4 4 4 5 5 5 5 5 5 6 6 6 7 7 7 7 7 7 7 8 9 9 10 10 10 11 11 11 11 11 11 11 11 11 11 10 10 10 11 11 12 12 13 13 13 13 13 13 13 13 13 14 14 14 14 14 13 13 13 13 13
2 2 2 2 3 3 4 4 4 4 5 5 5 5 5 5 5 5 6 7 7 7 7 7 7 7 8 9 10 10 10 10 11 11 11 11 11 11 11 11 12 11 11 11 11 11 12 12 12 13 13 13 14 14 14 13 13 13 13 13 14 14 14 14 13 13 13 13 13
2 2 2 3 3 4 4 4 4 4 5 5 6 6 6 5 5 5 6 7 7 7 7 8 8 8 8 9 10 10 10 10 11 11 11 11 11 12 12 12 12 12 12 12 12 12 12 12 12 12 13 13 14 14 14 14 13 13 14 14 14 14 14 14 13 13 13 13 13
2 2 2 3 4 4 5 5 4 5 5 6 6 6 6 5 5 6 6 7 7 7 8 9 8 8 8 9 9 9 10 10 10 11 11 11 12 12 12 12 12 12 12 12 12 12 12 12 12 12 12 13 13 13 13 13 13 13 13 13 13 13 13 13 13 13 13 13 14
2 2 3 4 4 5 5 5 5 5 6 6 6 6 6 6 6 6 6 7 7 8 9 10 9 9 9 10 9 9 9 10 10 11 11 11 12 12 12 12 12 12 12 12 12 12 13 13 12 12 12 12 12 12 12 13 12 13 13 13 13 13 13 14 14 13 13 13 14
2 3 3 4 5 5 6 6 6 6 6 6 6 6 6 7 7 7 7 7 8 9 10 10 10 10 10 11 10 10 10 10 11 11 12 12 12 12 12 12 12 12 12 12 12 12 13 12 12 12 12 11 11 12 12 12 12 12 13 13 13 13 14 14 14 14 13 14 14
2 3 4 4 5 5 6 6 6 6 6 6 7 7 7 7 8 8 8 8 9 9 10 10 10 10 11 11 11 11 11 10 11 11 12 11 11 12 12 12 12 12 12 12 12 12 12 12 12 12 12 12 12 12 12 12 12 12 13 13 13 13 14 14 14 14 14 15 14
3 3 4 4 5 5 6 6 6 7 7 7 7 7 8 8 8 8 8 9 9 9 10 10 11 11 11 11 12 12 11 9 10 11 11 11 11 12 12 12 12 12 12 11 11 12 12 11 11 11 11 11 12 12 12 12 12 13 13 13 13 14 14 15 15 15 15 15 14
3 3 4 4 5 5 6 6 7 7 7 7 7 8 8 8 8 8 9 9 9 9 10 10 11 11 11 12 12 12 11 10 10 10 10 11 11 11 11 11 11 12 12 12 11 11 11 10 11 11 11 11 12 12 13 13 13 13 14 14 15 15 16 16 15 15 14 14 13
3 3 4 4 5 6 6 7 7 7 7 8 8 8 8 8 8 9 9 9 9 10 10 10 10 11 11 11 12 11 11 11 11 11 11 11 11 11 11 11 11 12 11 11 10 10 9 9 10 11 11 12 12 13 14 14 14 14 14 15 15 16 16 15 14 13 13 12 12
3 3 4 4 5 6 7 7 7 8 8 8 8 8 8 8 9 9 9 9 10 10 10 10 10 10 11 11 11 11 11 11 11 12 12 11 11 11 11 11 10 10 10 9 9 9 9 8 9 10 11 12 12 13 13 14 14 14 14 14 15 14 14 13 13 12 11 11 11
3 4 4 5 6 6 7 7 8 8 8 8 8 8 8 9 9 9 9 10 10 11 11 11 11 10 10 10 10 11 11 11 11 12 12 12 12 11 11 10 9 9 8 8 10 11 12 11 11 11 11 11 12 13 13 13 14 14 13 13 13 12 12 11 11 10 10 10 10
4 4 5 6 6 7 7 8 8 8 8 8 8 8 8 9 9 9 10 10 11 11 11 11 10 10 9 9 10 10 10 10 10 11 12 12 12 12 11 10 9 8 8 9 11 13 15 16 16 14 13 12 12 12 12 11 12 13 12 12 11 11 10 10 11 11 10 10 11
4 5 5 6 7 7 8 8 8 8 8 8 8 8 9 9 9 9 10 11 11 11 11 10 10 9 9 9 10 10 10 10 10 11 11 12 12 12 11 10 9 8 8 11 13 15 16 17 18 17 16 13 12 11 10 10 11 11 12 11 11 11 11 12 12 13 12 12 12
4 5 6 7 7 8 8 8 8 8 8 8 8 8 9 9 10 10 10 10 11 10 10 9 8 8 7 7 9 10 11 11 11 10 11 11 12 12 12 11 10 9 10 13 15 16 17 17 18 18 17 15 12 11 11 11 10 10 10 10 10 11 12 12 12 12 12 13 12
5 5 6 7 8 8 8 8 8 8 8 8 8 9 9 9 10 10 10 11 11 10 9 8 7 7 7 8 9 10 11 11 10 10 10 11 12 12 12 12 11 11 13 15 16 16 17 17 18 18 19 17 12 9 9 9 9 9 9 9 10 11 11 11 11 11 12 12 12
5 6 6 7 8 8 8 8 8 8 8 8 8 9 9 10 10 10 11 11 11 10 9 8 8 8 9 10 10 10 10 10 10 10 11 12 12 12 12 12 12 12 13 15 15 16 16 17 18 19 19 19 15 12 9 9 9 9 9 9 10 12 12 13 13 13 13 12 12
5 6 7 8 8 8 8 8 8 8 8 8 9 9 9 10 10 10 10 10 10 10 10 10 10 11 11 11 10 11 11 11 11 11 11 12 12 13 13 13 13 12 13 14 15 16 16 17 18 19 19 20 16 12 10 10 10 10 10 10 12 13 13 13 13 13 13 13 12
5 6 7 8 8 9 9 8 8 8 8 9 9 9 9 10 10 10 10 10 10 11 11 11 11 11 12 11 11 11 11 11 11 11 11 12 12 13 13 13 13 12 12 14 15 16 17 18 18 19 20 20 17 14 12 12 12 11 12 12 13 14 14 12 11 12 13 13 12
5 6 7 8 8 9 9 8 8 8 9 9 9 9 10 10 10 10 10 10 10 10 11 11 11 11 12 12 12 12 12 12 12 12 12 13 13 13 13 12 11 11 12 14 15 16 17 18 19 19 20 20 16 14 13 13 12 11 11 11 12 12 13 13 11 11 11 11 11
6 7 7 8 8 9 9 8 8 9 9 9 9 9 10 10 10 10 10 10 10 10 10 10 11 11 11 11 11 12 12 11 11 12 12 13 13 13 13 11 9 10 12 15 16 17 18 18 19 19 20 20 15 13 13 14 12 11 11 11 10 10 10 11 11 11 10 10 10
6 7 8 8 8 9 9 9 9 9 9 9 9 10 10 10 10 10 10 10 10 10 10 10 10 10 11 11 11 11 12 12 12 12 12 13 13 13 13 12 11 12 14 16 17 17 18 18 19 20 20 18 13 11 12 14 13 12 11 11 10 10 10 10 10 9 9 9 9
6 7 8 8 9 9 9 9 9 9 9 9 10 10 10 10 10 10 10 10 10 11 11 11 11 11 11 11 11 11 11 12 13 13 12 12 13 13 13 13 12 13 15 16 17 17 18 19 19 20 19 15 11 10 11 11 10 10 10 10 10 11 11 11 9 9 8 8 9
6 7 8 9 9 9 9 9 9 9 9 10 10 10 10 10 10 10 9 10 10 11 11 11 11 11 12 12 11 11 12 12 13 13 13 12 12 13 13 13 13 13 14 16 17 17 18 19 19 19 17 13 11 10 10 9 8 8 9 10 11 11 11 10 9 8 8 8 9
6 7 8 8 9 9 9 9 9 9 9 10 10 10 10 10 10 9 9 9 10 10 11 11 12 12 12 12 12 12 12 13 13 13 13 12 12 12 13 13 13 13 13 15 16 17 18 18 19 19 17 13 12 11 10 8 8 8 8 9 10 11 11 9 8 7 8 8 10
7 7 8 8 8 9 9 9 9 9 9 10 10 10 10 10 9 9 9 9 9 10 11 12 12 12 12 12 12 12 13 13 13 13 12 12 12 12 13 13 13 13 13 15 17 17 18 18 19 19 17 14 12 10 9 8 8 8 8 9 10 11 11 9 8 7 7 9 11
7 7 8 8 8 8 9 9 9 9 9 9 10 10 10 10 9 9 9 9 9 10 11 11 12 12 12 12 12 13 13 13 12 12 12 12 12 13 13 13 13 13 14 15 16 17 18 18 19 18 17 13 11 9 8 8 8 8 9 9 10 10 9 9 8 7 7 8 10
7 7 8 8 8 8 9 9 9 9 9 9 9 9 9 9 9 9 9 9 10 10 10 10 11 12 13 12 12 12 13 13 13 12 12 12 12 12 12 12 13 13 14 14 16 17 18 18 18 18 17 13 10 9 8 8 8 9 10 10 9 9 8 8 8 7 7 8 8
Wind_Direction
81 78 76 74 72 72 71 73 63 48 30 19 21 20 12 357 359 3 4 357 351 345 339 335 333 332 332 336 337 337 335 334 333 331 329 327 327 328 327 326 326 324 323 322 321 319 316 314 311 306 299 295 292 289 286 283 282 281 280 279 278 278 278 276 275 274 274 274 273
75 74 73 75 78 81 85 86 82 74 61 46 33 25 18 6 3 360 358 357 348 337 329 326 327 328 329 331 332 331 329 327 326 324 322 320 320 320 319 318 318 317 317 316 316 315 313 312 309 304 298 294 289 287 285 283 281 280 279 279 278 278 277 276 275 276 276 276 275
70 70 69 67 64 66 72 76 81 80 77 71 60 48 33 20 4 355 347 339 332 328 326 326 326 326 325 325 325 324 322 320 319 318 317 315 315 315 315 315 313 313 312 313 314 313 312 311 307 302 298 294 292 290 289 288 286 284 283 283 282 280 279 278 277 277 277 275 274
64 60 58 56 54 56 59 62 69 74 77 80 86 82 62 36 359 340 328 320 321 325 328 328 324 322 321 320 319 317 315 314 314 313 312 311 312 312 312 311 311 311 311 311 311 310 309 309 304 299 295 293 292 291 291 292 291 289 287 286 285 283 282 280 280 280 279 277 277
66 61 58 59 61 63 65 66 66 71 76 79 85 68 41 15 342 328 320 316 323 326 327 323 318 316 316 316 315 313 312 312 312 311 310 310 310 310 310 310 310 310 310 310 309 308 307 306 301 296 294 293 292 290 289 290 289 287 286 285 285 284 283 283 282 281 280 279 278
74 74 75 75 76 77 78 75 70 67 61 37 4 2 1 353 340 332 327 323 322 321 319 316 314 314 315 315 313 312 312 312 312 311 310 309 310 310 310 310 310 310 308 308 307 306 304 304 299 295 293 291 288 287 287 289 288 287 286 285 284 284 284 284 283 281 280 278 277
83 87 90 90 87 83 80 75 66 50 29 12 6 360 354 347 338 331 327 322 320 319 319 316 316 316 316 315 313 312 312 312 311 310 310 309 309 310 309 309 307 306 305 306 305 304 303 302 297 293 291 290 288 289 290 291 291 290 288 286 285 284 283 283 283 281 280 278 278
95 94 93 91 87 81 73 60 36 16 5 2 359 353 346 340 333 328 323 320 322 323 321 317 316 315 314 313 312 311 311 311 310 310 310 309 309 307 306 305 304 303 303 303 302 301 301 299 293 290 289 289 288 289 290 291 290 288 286 284 282 280 278 278 277 276 275 275 275
107 103 98 92 83 74 63 45 20 2 354 352 349 343 338 334 329 325 323 324 325 321 317 313 315 315 313 311 310 310 311 311 310 310 309 307 306 305 305 304 303 302 301 301 299 298 297 293 288 286 286 287 286 287 288 288 287 285 283 281 279 278 277 276 275 275 274 274 273
108 104 98 88 72 56 37 16 4 353 346 344 342 338 333 330 329 327 326 326 320 316 314 314 315 314 312 310 310 310 310 310 309 308 308 306 305 305 304 303 302 301 300 299 297 296 294 291 287 285 284 283 284 285 285 285 284 282 281 279 279 280 279 278 277 277 276 275 274
97 89 78 66 49 28 4 347 346 343 341 340 338 335 333 331 332 329 325 321 314 313 314 315 314 313 311 310 310 310 310 310 308 307 306 305 305 304 303 302 301 299 298 297 296 294 292 288 285 284 284 284 284 284 284 284 283 282 281 281 281 281 280 279 279 278 277 275 274
92 81 67 51 32 9 350 340 340 340 340 339 338 336 334 334 333 329 323 317 314 313 314 314 312 310 310 309 310 311 310 309 307 306 305 304 303 302 301 300 299 298 297 296 295 292 288 285 284 284 284 284 284 284 284 284 284 284 283 283 282 282 281 280 280 279 277 276 275
87 75 60 40 16 356 345 341 339 338 339 338 339 338 335 332 330 326 321 316 315 314 314 313 311 309 309 310 311 310 310 308 307 306 304 303 302 301 301 300 299 298 297 296 294 291 288 286 285 285 286 286 285 285 285 285 285 285 284 284 283 282 281 281 281 280 278 277 276
84 67 45 22 1 349 344 342 339 337 338 339 340 337 333 327 327 324 321 317 316 314 313 312 311 310 310 311 310 310 309 307 306 304 303 302 301 301 301 300 300 299 298 296 294 291 289 288 287 287 287 287 286 286 285 285 285 284 284 283 283 282 282 282 281 281 279 278 276
79 57 32 8 355 349 347 343 339 338 339 340 340 336 330 325 325 323 319 316 314 313 312 312 312 311 311 310 309 309 308 306 305 304 303 302 302 302 302 301 301 300 299 297 295 293 291 290 289 289 288 287 287 286 286 285 284 283 282 282 281 281 281 281 281 280 279 278 277
64 42 18 359 356 353 350 346 341 340 339 339 337 333 328 324 322 319 316 314 313 312 312 313 313 312 311 310 309 308 307 306 305 304 304 303 304 304 304 303 302 301 300 299 296 294 292 291 290 289 288 287 287 286 286 285 284 282 281 280 279 279 279 279 279 279 278 278 277
43 23 7 357 357 355 352 348 343 340 338 335 332 328 325 322 319 316 314 314 313 313 313 313 313 311 310 309 309 308 307 306 305 305 305 305 306 306 305 304 303 302 301 299 297 295 293 292 290 289 288 286 286 285 284 283 282 280 279 277 276 276 276 276 276 276 276 275 274
18 8 1 358 356 354 351 347 342 338 334 330 327 324 321 318 316 314 313 313 312 313 313 313 312 310 309 309 309 308 307 306 306 306 306 306 306 305 304 304 302 302 300 298 296 295 294 293 291 290 288 286 285 284 283 281 280 278 277 276 275 274 274 274 274 274 273 272 271
360 359 358 358 354 351 347 343 338 334 330 326 323 320 317 315 314 313 312 312 313 314 313 312 310 309 308 309 309 309 308 306 306 306 306 306 305 305 303 303 302 301 299 298 296 295 294 293 292 291 289 287 285 283 281 280 278 277 277 276 276 275 275 275 274 273 273 272 271
353 355 356 356 350 345 342 339 334 330 326 322 319 317 315 314 313 312 313 314 315 313 311 309 309 309 309 310 310 310 309 307 306 306 306 306 305 304 303 303 302 300 299 297 296 294 294 293 293 292 290 288 285 283 281 280 278 278 278 277 277 277 277 276 275 274 273 271 271
350 352 352 349 344 340 336 333 329 326 322 319 317 316 315 314 313 313 314 314 313 311 309 308 308 309 310 311 310 310 308 306 305 305 304 304 304 303 303 303 301 300 298 297 295 294 294 293 293 292 290 287 285 283 281 280 279 279 278 278 277 277 276 275 274 273 273 272 272
345 346 344 339 336 333 330 327 325 322 320 318 317 316 316 315 314 314 313 312 310 309 308 308 308 309 310 310 309 308 306 304 303 303 303 303 303 303 303 303 301 299 297 295 294 294 294 293 293 292 290 288 286 284 283 282 281 280 280 279 278 277 276 275 275 276 278 279 279
336 335 331 328 327 326 324 323 321 320 319 319 318 318 316 315 315 314 313 311 310 309 309 308 308 309 309 308 306 305 304 303 302 302 303 303 303 303 303 302 299 297 295 294 294 294 294 295 295 294 293 291 290 289 287 286 284 283 283 283 283 283 283 283 286 289 292 292 287
324 323 321 320 322 321 320 320 320 320 320 320 319 318 317 316 315 314 313 312 311 312 311 310 310 309 308 306 304 304 303 304 304 304 305 305 304 304 303 301 298 295 293 291 291 293 295 297 297 295 294 292 291 290 289 289 288 289 289 290 291 292 294 297 301 302 301 296 289
311 311 312 316 317 318 318 319 320 320 320 320 318 317 317 317 316 315 314 313 313 313 312 311 310 308 306 304 304 304 304 305 305 305 306 305 305 304 303 300 297 295 292 290 291 292 294 295 295 294 292 290 290 289 290 290 291 292 293 295 296 298 301 303 303 299 294 288 284
300 304 308 314 315 316 317 319 320 319 319 318 317 317 317 317 316 315 314 313 313 314 313 312 310 309 307 305 305 305 306 306 305 305 305 304 304 303 302 299 297 294 292 291 294 296 297 297 295 293 291 288 288 289 290 291 292 293 294 294 295 297 298 298 294 289 284 280 281
294 302 308 312 312 314 316 318 318 318 318 318 318 317 317 316 315 314 313 313 314 314 313 312 311 309 308 305 305 306 306 306 305 303 302 302 302 301 300 298 295 293 292 294 297 299 300 300 298 296 293 290 290 290 290 290 291 292 293 292 292 291 290 288 287 286 285 284 286
293 302 307 309 310 313 316 318 318 319 319 318 318 317 316 314 312 312 312 313 314 314 314 312 311 310 307 305 306 306 306 305 303 302 301 300 299 298 298 297 296 294 295 297 300 302 302 302 300 298 296 295 293 291 290 291 292 292 291 291 290 288 286 285 286 288 289 290 291
292 300 304 307 310 314 316 318 319 320 319 318 316 315 313 312 312 312 313 315 315 315 314 312 310 307 305 305 305 305 304 303 302 301 300 299 298 298 297 297 297 297 299 301 302 304 304 302 301 300 299 299 298 296 296 297 295 293 291 290 288 287 287 288 289 290 291 291 292
292 299 303 307 311 314 316 319 319 319 318 316 315 314 313 312 313 314 315 316 316 315 313 310 307 305 304 305 305 304 303 303 302 301 300 299 299 299 299 300 300 300 301 302 304 304 304 303 302 301 301 303 302 300 299 298 297 295 293 292 290 290 291 291 291 291 291 292 292
293 299 304 308 311 314 317 319 318 317 316 315 314 313 312 312 314 315 316 316 314 312 309 306 305 304 304 305 305 304 304 303 302 301 300 300 300 300 300 301 300 299 300 302 304 305 304 303 303 303 304 306 306 305 303 300 298 297 295 294 293 293 292 292 292 292 293 294 296
294 300 305 309 312 315 317 318 317 316 315 313 312 312 312 312 313 314 314 314 312 310 308 307 307 307 307 307 306 305 305 304 303 302 301 300 300 301 301 300 300 299 300 303 304 305 304 304 305 306 308 309 309 308 305 301 298 295 293 292 293 295 297 298 297 297 298 299 302
297 303 308 311 314 315 317 317 316 315 314 312 311 312 312 312 312 312 312 312 310 309 309 309 309 309 309 309 308 306 305 303 302 301 301 301 301 301 301 300 299 299 301 302 303 304 305 307 309 310 311 312 311 308 304 300 296 293 292 294 299 303 305 305 303 302 302 304 305
304 309 312 313 315 315 316 316 315 314 313 311 311 312 312 312 311 312 312 312 310 309 308 308 308 308 308 307 306 305 304 303 302 301 301 301 301 301 301 300 298 298 300 302 303 305 308 310 312 313 313 313 311 306 302 298 296 295 298 304 310 311 308 303 299 299 300 304 307
311 313 314 315 315 315 315 315 314 313 312 311 311 312 312 311 311 311 312 311 310 308 307 307 307 307 306 305 304 303 302 301 300 300 301 301 301 301 300 300 299 300 301 302 304 307 310 312 314 314 314 313 310 304 300 298 298 302 308 313 310 302 294 289 289 292 298 303 308
314 315 316 315 315 315 315 314 313 312 311 311 311 312 312 312 311 311 311 311 309 308 308 309 309 308 307 306 305 303 302 301 300 300 300 300 300 300 301 301 302 303 304 305 307 309 312 313 314 314 314 313 309 303 300 299 303 309 312 309 298 289 284 283 286 292 297 303 305
317 317 316 314 314 313 313 313 312 311 311 311 312 312 312 312 311 311 311 311 310 309 310 310 309 309 308 308 306 304 302 300 300 299 299 299 299 300 301 303 304 305 307 308 310 312 313 314 314 314 314 312 308 304 301 301 307 310 308 300 289 283 281 282 286 291 295 298 299
317 316 314 312 311 311 310 310 309 309 310 310 311 311 311 311 310 310 311 312 311 310 310 309 309 308 308 307 305 303 301 299 298 297 297 297 298 300 302 304 305 307 309 312 314 315 315 315 314 315 315 312 309 305 302 303 307 308 303 294 286 283 282 283 286 289 292 294 295
316 314 311 308 307 307 307 306 307 308 309 310 310 310 310 310 309 310 311 311 309 308 308 307 307 307 307 307 305 303 300 298 297 295 295 295 297 300 302 304 306 308 311 315 316 317 317 316 316 316 315 313 309 305 302 302 305 303 299 293 290 288 288 289 290 290 291 293 296
311 309 307 305 304 303 303 304 305 306 308 308 309 309 309 309 308 308 309 307 307 307 306 305 305 306 307 307 304 303 301 299 297 296 295 295 297 300 302 304 306 308 311 315 317 318 318 318 317 317 317 313 309 305 302 301 303 302 300 298 298 299 299 298 296 294 293 296 300
306 305 303 302 301 301 301 302 304 305 306 306 307 307 307 306 306 307 308 307 308 307 305 304 305 306 307 307 305 303 301 300 298 297 296 297 298 301 303 304 305 307 310 313 317 319 319 319 318 318 317 313 309 305 303 304 305 304 304 304 306 306 305 302 299 296 297 302 306